Date String (YYYY-MM-DD hh:mm:ss) UTC,Instrument flags,absolute air pressure of the measurement (hPa),sample flow rate (lpm),inlet stack bypass flow (lpm),air temperature of the measurement (°C),ambient temperature measured by the external sensor (°C),aerosol sample conditioner tube jacket temperature (°C),OPC LED temperature (°C),internal box temperature (°C),relative humidity of the measurement (%),span deviation,mass concentration of particles derived from Lorenz-Mie calculation of OPC scattering (μg/m³),mass concentration of particles derived from Lorenz-Mie calculation of OPC scattering (μg/m³),mass concentration of particles derived from Lorenz-Mie calculation of OPC scattering (μg/m³)
DateTimeUTC,F1_M11,P_M11,Q1_M11,Q2_M11,T1_M11,T2_M11,T3_M11,T4_M11,T5_M11,U1_M11,ZSPAN_M11,X2_M11,X0_M11,X1_M11
2023-08-12 20:00:00,SystemResetWarning,0833.4,5.00,000.00,028.9,027.4,000.0,037.2,030.7,25.8,0000.0,0004.39,0012.70,0003.63
2023-08-12 20:01:00,SystemResetWarning,0833.4,5.00,000.00,028.9,027.6,000.0,037.3,030.8,24.9,0000.0,0004.38,0011.43,0003.62
2023-08-12 20:02:00,SystemResetWarning,0833.4,5.00,000.00,029.0,027.8,000.0,037.3,030.8,24.7,0000.0,0004.33,0010.15,0003.61
2023-08-12 20:03:00,SystemResetWarning,0833.4,4.98,000.00,029.0,026.8,000.0,037.2,030.6,25.3,0000.0,0004.29,0010.03,0003.59
2023-08-12 20:04:00,SystemResetWarning,0833.3,5.02,000.00,028.9,025.1,000.0,037.1,030.2,25.3,0000.0,0004.27,0009.96,0003.57
2023-08-12 20:05:00,SystemResetWarning,0833.3,5.02,000.00,028.8,024.7,000.0,037.0,030.1,26.0,0000.0,0004.28,0009.67,0003.56
2023-08-12 20:06:00,SystemResetWarning,0833.4,5.00,000.00,028.8,025.0,000.0,037.0,030.0,26.4,0000.0,0004.29,0009.59,0003.55
2023-08-12 20:07:00,SystemResetWarning,0833.3,4.99,000.00,028.7,025.4,000.0,037.1,030.1,27.1,0000.0,0004.33,0009.10,0003.55
2023-08-12 20:08:00,SystemResetWarning,0833.4,5.00,000.00,028.7,025.9,000.0,037.1,030.3,27.4,0000.0,0004.30,0008.98,0003.52
2023-08-12 20:09:00,SystemResetWarning,0833.4,5.01,000.00,028.7,026.3,000.0,037.1,030.4,27.5,0000.0,0004.26,0009.35,0003.52
2023-08-12 20:10:00,SystemResetWarning,0833.4,5.01,000.00,028.8,026.7,000.0,037.2,030.5,27.2,0000.0,0004.24,0009.55,0003.52
2023-08-12 20:11:00,SystemResetWarning,0833.4,5.00,000.00,028.8,027.0,000.0,037.2,030.6,26.8,0000.0,0004.24,0009.52,0003.52
2023-08-12 20:12:00,SystemResetWarning,0833.4,5.00,000.00,028.9,027.3,000.0,037.2,030.7,26.3,0000.0,0004.19,0009.62,0003.51
2023-08-12 20:13:00,SystemResetWarning,0833.4,5.01,000.00,028.9,027.6,000.0,037.3,030.8,26.8,0000.0,0004.24,0009.87,0003.50
2023-08-12 20:14:00,SystemResetWarning,0833.4,5.00,000.00,029.0,027.8,000.0,037.3,030.8,26.6,0000.0,0004.26,0010.02,0003.49
2023-08-12 20:15:00,SystemResetWarning,0833.3,4.98,000.00,029.0,027.2,000.0,037.2,030.7,26.4,0000.0,0004.27,0010.30,0003.48
2023-08-12 20:16:00,SystemResetWarning,0833.2,5.00,000.00,028.9,025.4,000.0,037.1,030.3,26.4,0000.0,0004.19,0010.14,0003.43
2023-08-12 20:17:00,SystemResetWarning,0833.2,5.00,000.00,028.8,024.7,000.0,037.0,030.1,27.2,0000.0,0004.12,0009.58,0003.37
2023-08-12 20:18:00,SystemResetWarning,0833.3,5.01,000.00,028.8,025.0,000.0,037.0,030.1,27.1,0000.0,0003.99,0009.27,0003.31
2023-08-12 20:19:00,SystemResetWarning,0833.2,5.00,000.00,028.7,025.4,000.0,037.1,030.1,26.9,0000.0,0003.93,0008.82,0003.25
2023-08-12 20:20:00,SystemResetWarning,0833.2,5.00,000.00,028.7,025.8,000.0,037.1,030.2,26.6,0000.0,0003.88,0008.36,0003.19
2023-08-12 20:21:00,SystemResetWarning,0833.2,5.00,000.00,028.7,026.3,000.0,037.1,030.4,26.7,0000.0,0003.79,0008.01,0003.12
2023-08-12 20:22:00,SystemResetWarning,0833.2,5.00,000.00,028.8,026.6,000.0,037.2,030.5,27.1,0000.0,0003.67,0008.00,0003.02
2023-08-12 20:23:00,SystemResetWarning,0833.2,5.00,000.00,028.8,027.0,000.0,037.2,030.6,27.2,0000.0,0003.62,0007.85,0002.90
2023-08-12 20:24:00,SystemResetWarning,0833.2,5.00,000.00,028.9,027.3,000.0,037.2,030.6,27.2,0000.0,0003.47,0007.35,0002.78
2023-08-12 20:25:00,SystemResetWarning,0833.2,5.00,000.00,028.9,027.5,000.0,037.3,030.7,27.5,0000.0,0003.38,0007.24,0002.68
2023-08-12 20:26:00,SystemResetWarning,0833.2,5.00,000.00,029.0,027.7,000.0,037.3,030.8,27.4,0000.0,0003.31,0006.75,0002.59
2023-08-12 20:27:00,SystemResetWarning,0833.2,5.00,000.00,029.0,027.9,000.0,037.3,030.9,27.6,0000.0,0003.26,0006.51,0002.53
2023-08-12 20:28:00,SystemResetWarning,0833.2,4.98,000.00,029.0,027.0,000.0,037.2,030.6,28.1,0000.0,0003.26,0006.54,0002.51
2023-08-12 20:29:00,SystemResetWarning,0833.2,5.00,000.00,029.0,025.3,000.0,037.1,030.3,28.3,0000.0,0003.23,0007.10,0002.49
2023-08-12 20:30:00,SystemResetWarning,0833.2,5.00,000.00,028.9,024.8,000.0,037.0,030.1,28.5,0000.0,0003.20,0007.66,0002.48
2023-08-12 20:31:00,SystemResetWarning,0833.2,5.01,000.00,028.8,025.1,000.0,037.1,030.1,28.7,0000.0,0003.15,0007.50,0002.47
2023-08-12 20:32:00,SystemResetWarning,0833.2,5.01,000.00,028.7,025.5,000.0,037.1,030.2,28.9,0000.0,0003.12,0007.60,0002.47
2023-08-12 20:33:00,SystemResetWarning,0833.2,4.99,000.00,028.7,026.0,000.0,037.1,030.3,28.6,0000.0,0003.13,0007.24,0002.48
2023-08-12 20:34:00,SystemResetWarning,0833.2,5.00,000.00,028.8,026.4,000.0,037.2,030.4,29.2,0000.0,0003.10,0006.97,0002.48
2023-08-12 20:35:00,SystemResetWarning,0833.2,5.00,000.00,028.8,026.7,000.0,037.2,030.5,29.7,0000.0,0003.12,0007.85,0002.51
2023-08-12 20:36:00,SystemResetWarning,0833.2,4.99,000.00,028.8,027.0,000.0,037.2,030.6,29.5,0000.0,0003.17,0007.92,0002.56
2023-08-12 20:37:00,SystemResetWarning,0833.2,4.99,000.00,028.9,027.3,000.0,037.3,030.6,29.6,0000.0,0003.21,0007.98,0002.59
2023-08-12 20:38:00,SystemResetWarning,0833.2,5.00,000.00,028.9,027.5,000.0,037.3,030.7,29.1,0000.0,0003.23,0008.31,0002.63
2023-08-12 20:39:00,SystemResetWarning,0833.3,5.00,000.00,029.0,027.7,000.0,037.3,030.8,28.9,0000.0,0003.25,0008.43,0002.66
2023-08-12 20:40:00,SystemResetWarning,0833.2,5.01,000.00,029.0,027.9,000.0,037.4,030.8,28.8,0000.0,0003.30,0008.24,0002.71
2023-08-12 20:41:00,SystemResetWarning,0833.2,4.99,000.00,029.0,027.5,000.0,037.3,030.8,28.9,0000.0,0003.33,0008.15,0002.75
2023-08-12 20:42:00,SystemResetWarning,0833.2,4.99,000.00,029.0,025.7,000.0,037.2,030.5,28.4,0000.0,0003.41,0008.35,0002.80
2023-08-12 20:43:00,SystemResetWarning,0833.2,5.01,000.00,028.9,024.8,000.0,037.1,030.2,28.7,0000.0,0003.47,0008.23,0002.87
2023-08-12 20:44:00,SystemResetWarning,0833.2,5.01,000.00,028.8,024.9,000.0,037.1,030.1,29.0,0000.0,0003.54,0008.26,0002.97
2023-08-12 20:45:00,SystemResetWarning,0833.2,5.00,000.00,028.8,025.3,000.0,037.1,030.1,29.3,0000.0,0003.61,0008.41,0003.04
2023-08-12 20:46:00,SystemResetWarning,0833.2,5.00,000.00,028.7,025.8,000.0,037.2,030.2,28.6,0000.0,0003.67,0007.99,0003.08
2023-08-12 20:47:00,SystemResetWarning,0833.2,5.01,000.00,028.8,026.2,000.0,037.2,030.3,28.5,0000.0,0003.69,0007.92,0003.12
2023-08-12 20:48:00,SystemResetWarning,0833.2,5.00,000.00,028.8,026.6,000.0,037.2,030.4,28.7,0000.0,0003.67,0007.80,0003.14
2023-08-12 20:49:00,SystemResetWarning,0833.2,5.00,000.00,028.8,026.9,000.0,037.2,030.5,28.8,0000.0,0003.71,0007.55,0003.17
2023-08-12 20:50:00,SystemResetWarning,0833.2,5.00,000.00,028.8,027.2,000.0,037.3,030.6,29.0,0000.0,0003.77,0007.55,0003.20
2023-08-12 20:51:00,SystemResetWarning,0833.2,5.00,000.00,028.9,027.4,000.0,037.3,030.7,28.6,0000.0,0003.79,0007.47,0003.22
2023-08-12 20:52:00,SystemResetWarning,0833.2,5.00,000.00,028.9,027.6,000.0,037.3,030.7,28.0,0000.0,0003.83,0007.51,0003.24
2023-08-12 20:53:00,SystemResetWarning,0833.2,5.00,000.00,029.0,027.8,000.0,037.3,030.8,27.9,0000.0,0003.87,0007.77,0003.28
2023-08-12 20:54:00,SystemResetWarning,0833.2,4.99,000.00,029.0,027.0,000.0,037.3,030.6,27.7,0000.0,0003.89,0007.85,0003.29
2023-08-12 20:55:00,SystemResetWarning,0833.2,5.00,000.00,028.9,025.3,000.0,037.2,030.2,27.3,0000.0,0003.90,0008.18,0003.29
2023-08-12 20:56:00,SystemResetWarning,0833.2,5.00,000.00,028.8,024.6,000.0,037.1,030.0,27.1,0000.0,0003.93,0009.52,0003.30
2023-08-12 20:57:00,SystemResetWarning,0833.2,5.01,000.00,028.7,024.9,000.0,037.1,030.0,27.3,0000.0,0003.95,0009.88,0003.32
2023-08-12 20:58:00,SystemResetWarning,0833.2,5.00,000.00,028.7,025.3,000.0,037.1,030.0,26.6,0000.0,0004.00,0010.20,0003.34
2023-08-12 20:59:00,SystemResetWarning,0833.2,5.00,000.00,028.7,025.7,000.0,037.1,030.2,26.4,0000.0,0004.03,0010.82,0003.34
